STARLINK-11494, 62272

Orbit data source: Space-Track

STARLINK-11494, 62272 is a payload satellite owned by SpaceX/Seattle (US) in LEO that was launched on Sun, 08 Dec 2024 UTC via an FALCON 9 launch vehicle from the Air Force Eastern Test Range (AFETR). Payload-class satellites include a variety of spacecraft equipped with specific instruments for various scientific and technological missions. These include communications satellites like Starlink; space stations such as the ISS; scientific satellites like the Hubble; Earth observation satellites from companies like Planet Labs, Umbra, and HawkEye 360; GPS; miniature CubeSats for education and research; and military/defense satellites.

Loading next visibility...
Identifier
62272, 2024-237F
Orbit
LEO
Country
Flag of USUS
Related business
Manufacturer
SpaceX/Seattle
Mission
Operational Commercial Communications
Bus & Motor
STARLINK V2MD, Unknown motor
Mass
960 kg wet, ~910 kg dry
Launch date (UTC)
2024-12-08 (2 years ago)
Launch vehicle
FALCON 9
Launch site
Air Force Eastern Test Range (AFETR)
Object type
Payload
Rocket body
Debris
Shape & HBR
Box + 2 Pan, 18.1 m
Radar Cross Section
36.964 m², Large (>1 m²)

Expand to show TLE details & history
Last TLE update: 20 hours ago

TLE from 20 hours ago
0 STARLINK-11494
1 62272U 24237F   26171.02255025  .00176637  00000-0  13517-2 0  9994
2 62272  43.0006 160.0433 0002657 271.0993  88.9571 15.70825417 89096
Epoch: 2026-06-20T00:32Z
TLE epoch observation values (Epoch: 2026-06-20T00:32:28.341Z)
Latitude
0.00003°
Longitude
-116.31789°
Altitude
356.276 km
Speed
7.697 km/s
True Right ascension
10h 40m 10s
True Declination
0° 00' 00"
Sunlit
Object was in daylight at epoch
Visualization orbit readout
Latitude
Unknown
Longitude
Unknown
Altitude
Unknown
Speed
Unknown
Apparent Right ascension
Unknown
Apparent Declination
Unknown
Sunlit
N/A
Visualization observer readout
Local Sidereal Time
07:23:30
Azimuth
Unknown
Elevation
Unknown
Doppler factor
Unknown
Orbital elements
Apogee altitude
360.308 km
Perigee altitude
356.728 km
Semi-major axis
6,736.655 km
Eccentricity
0.00027
Inclination
43.0006°
RAAN
160.0433°
Arg. of periapsis
271.0993°
True anomaly
88.98754°
Mean anomaly
88.9571°
Eccentric anomaly
88.97232°
Mean motion
3.92533 °/min
Orbital period
91.71 mins
BSTAR
0.0013517
Loading maneuver chart data...
Computing Atmospheric mass density...
Loading historical data...
Loading historical data...
Loading historical data...
Loading historical data...
Loading historical data...
Loading historical data...
Loading historical data...

Documentation

Showing up to 5 results
|